Home   Weather   Douala   Past weeks

Flag for Cameroon Past Weather in Douala, Cameroon — Yesterday and Last 2 Weeks

Now
77 °F

Passing clouds.


Feels Like: 78 °F
Forecast: 74 / 78 °F
Wind: 5 mph from South

Location: Douala Obs.

Current Time: Aug 20, 2017 at 11:54:29 pm

Latest Report: Aug 20, 2017 at 11:00 pm


Visibility: N/A

Pressure: 29.98 "Hg

Humidity: 94%

Dew Point: 75 °F

Location of DoualaLocation

Past Weather in Douala — Graph

°F

Douala Temperature Yesterday

Maximum temperature yesterday: 84 °F (at 1:00 pm)
Minimum temperature yesterday: 73 °F (at 12:00 am)
Average temperature yesterday: 78 °F

High & Low Weather Summary for the Past Weeks

 TemperatureHumidityPressure
High84 °F (Aug 15, 1:00 pm)100% (Aug 5, 10:00 pm)30.01 "Hg (Aug 5, 10:00 pm)
Low73 °F (Aug 6, 9:00 pm)70% (Aug 19, 1:00 pm)29.80 "Hg (Aug 17, 3:00 pm)
Average77 °F94%29.91 "Hg
* Reported Aug 5 10:00 pm — Aug 20 10:00 pm, Douala. Weather by CustomWeather, © 2017

Note: Actual official high and low records may vary slightly from our data, if they occured in-between our weather recording intervals... More about our weather records

Advertising

Douala Weather History for the Previous 24 Hours

Scroll right to see more
 ConditionsComfort  
Time TempWeatherWind HumidityBarometerVisibility
10:00 pm
Sun, Aug 20
77 °FPassing clouds.5 mph94%29.95 "HgN/A
9:00 pm77 °FPassing clouds.5 mph94%29.95 "HgN/A
8:00 pm77 °FPartly cloudy.5 mph94%29.92 "HgN/A
7:00 pm77 °FPassing clouds.6 mph94%29.92 "Hg5 mi
6:00 pm77 °FDrizzle. Broken clouds.6 mph94%29.89 "Hg4 mi
5:00 pm79 °FPartly sunny.3 mph89%29.86 "HgN/A
4:00 pm81 °FPartly sunny.5 mph84%29.86 "HgN/A
3:00 pm81 °FPartly sunny.3 mph84%29.89 "HgN/A
2:00 pm84 °FBroken clouds.5 mph79%29.89 "HgN/A
1:00 pm81 °FBroken clouds.5 mph89%29.92 "HgN/A
12:00 pm79 °FDrizzle. Broken clouds.3 mph89%29.95 "Hg4 mi
11:00 am79 °FBroken clouds.3 mph89%29.95 "HgN/A
10:00 am79 °FBroken clouds.3 mph89%29.98 "HgN/A
9:00 am79 °FBroken clouds.2 mph89%29.98 "HgN/A
8:00 am77 °FDrizzle. Broken clouds.2 mph94%29.92 "Hg4 mi
7:00 am75 °FDrizzle. Broken clouds.1 mph100%29.89 "Hg4 mi
6:00 am75 °FPartly cloudy.1 mph100%29.89 "Hg4 mi
5:00 am75 °FPartly cloudy.3 mph100%29.86 "Hg4 mi
4:00 am77 °FPartly cloudy.No wind94%29.86 "HgN/A
2:00 am77 °FPassing clouds.1 mph94%29.89 "Hg4 mi
1:00 am77 °FPassing clouds.No wind100%29.89 "Hg4 mi
12:00 am77 °FPassing clouds.No wind100%29.92 "HgN/A
11:00 pm
Sat, Aug 19
77 °FPassing clouds.No wind94%29.92 "HgN/A
Weather by CustomWeather, © 2017

See weather overviewHow to use our weather pages